Time,TemperatureF,DewpointF,PressureIn,WindDirection,WindDirectionDegrees,WindSpeedMPH,WindSpeedGustMPH,Humidity,HourlyPrecipIn,Conditions,Clouds,dailyrainin,SolarRadiationWatts/m^2,SoftwareType,DateUTC
2013-01-03 00:03:00,35.0,34.0,-100.00,WNW,298,1.0,2.0,98,0.00,,,0.05,0.000000,,2013-01-03 05:03:00,
2013-01-03 00:33:00,36.0,35.0,-100.00,WNW,298,5.0,9.0,97,0.00,,,0.01,0.000000,,2013-01-03 05:33:00,
2013-01-03 00:42:00,36.0,35.0,-100.00,WNW,298,5.0,9.0,97,0.00,,,0.01,0.000000,,2013-01-03 05:42:00,
2013-01-03 00:53:00,36.0,35.0,-100.00,WNW,298,5.0,9.0,97,0.00,,,0.01,0.000000,,2013-01-03 05:53:00,
2013-01-03 01:03:00,36.0,35.0,-100.00,WNW,298,5.0,9.0,97,0.00,,,0.01,0.000000,,2013-01-03 06:03:00,
2013-01-03 01:33:00,35.0,34.0,-100.00,WNW,301,3.0,6.0,96,0.00,,,0.01,0.000000,,2013-01-03 06:33:00,
2013-01-03 01:43:00,35.0,34.0,-100.00,WNW,301,3.0,6.0,96,0.00,,,0.01,0.000000,,2013-01-03 06:43:00,
2013-01-03 01:53:00,35.0,34.0,-100.00,WNW,301,3.0,6.0,96,0.00,,,0.01,0.000000,,2013-01-03 06:53:00,
2013-01-03 02:02:00,35.0,34.0,-100.00,WNW,301,3.0,6.0,96,0.00,,,0.01,0.000000,,2013-01-03 07:02:00,
2013-01-03 02:33:00,35.0,34.0,-100.00,WNW,295,2.0,4.0,97,0.00,,,0.01,0.000000,,2013-01-03 07:33:00,
2013-01-03 02:43:00,35.0,34.0,-100.00,WNW,295,2.0,4.0,97,0.00,,,0.01,0.000000,,2013-01-03 07:43:00,
2013-01-03 02:53:00,35.0,34.0,-100.00,WNW,295,2.0,4.0,97,0.00,,,0.01,0.000000,,2013-01-03 07:53:00,
2013-01-03 03:02:00,35.0,34.0,-100.00,WNW,295,2.0,4.0,97,0.00,,,0.01,0.000000,,2013-01-03 08:02:00,
2013-01-03 03:33:00,34.0,33.0,-100.00,WSW,243,2.0,9.0,97,0.00,,,0.00,0.000000,,2013-01-03 08:33:00,
2013-01-03 03:43:00,34.0,33.0,-100.00,WSW,243,2.0,9.0,97,0.00,,,0.00,0.000000,,2013-01-03 08:43:00,
2013-01-03 03:53:00,34.0,33.0,-100.00,WSW,243,2.0,9.0,97,0.00,,,0.00,0.000000,,2013-01-03 08:53:00,
2013-01-03 04:03:00,34.0,33.0,-100.00,WSW,243,2.0,9.0,97,0.00,,,0.00,0.000000,,2013-01-03 09:03:00,
2013-01-03 04:34:00,35.0,34.0,-100.00,West,275,2.0,4.0,96,0.00,,,0.00,0.000000,,2013-01-03 09:34:00,
2013-01-03 04:43:00,35.0,34.0,-100.00,West,275,2.0,4.0,96,0.00,,,0.00,0.000000,,2013-01-03 09:43:00,
2013-01-03 04:53:00,35.0,34.0,-100.00,West,275,2.0,4.0,96,0.00,,,0.00,0.000000,,2013-01-03 09:53:00,
2013-01-03 05:02:00,35.0,34.0,-100.00,West,275,2.0,4.0,96,0.00,,,0.00,0.000000,,2013-01-03 10:02:00,
2013-01-03 05:33:00,34.0,32.0,-100.00,NNW,330,3.0,6.0,94,0.00,,,0.00,0.000000,,2013-01-03 10:33:00,
2013-01-03 05:43:00,34.0,32.0,-100.00,NNW,330,3.0,6.0,94,0.00,,,0.00,0.000000,,2013-01-03 10:43:00,
2013-01-03 05:53:00,34.0,32.0,-100.00,NNW,330,3.0,6.0,94,0.00,,,0.00,0.000000,,2013-01-03 10:53:00,
2013-01-03 06:02:00,34.0,32.0,-100.00,NNW,330,3.0,6.0,94,0.00,,,0.00,0.000000,,2013-01-03 11:02:00,
2013-01-03 06:33:00,34.0,32.0,-100.00,NNW,341,1.0,7.0,93,0.00,,,0.00,0.000000,,2013-01-03 11:33:00,
2013-01-03 06:43:00,34.0,32.0,-100.00,NNW,341,1.0,7.0,93,0.00,,,0.00,0.000000,,2013-01-03 11:43:00,
2013-01-03 06:53:00,34.0,32.0,-100.00,NNW,341,1.0,7.0,93,0.00,,,0.00,0.000000,,2013-01-03 11:53:00,
2013-01-03 07:03:00,34.0,32.0,-100.00,NNW,341,1.0,7.0,93,0.00,,,0.00,0.000000,,2013-01-03 12:03:00,
2013-01-03 07:33:00,34.0,33.0,-100.00,NW,305,3.0,6.0,95,0.00,,,0.00,0.000000,,2013-01-03 12:33:00,
2013-01-03 07:43:00,34.0,33.0,-100.00,NW,305,3.0,6.0,95,0.00,,,0.00,0.000000,,2013-01-03 12:43:00,
2013-01-03 07:53:00,34.0,33.0,-100.00,NW,305,3.0,6.0,95,0.00,,,0.00,0.000000,,2013-01-03 12:53:00,
2013-01-03 08:02:00,34.0,33.0,-100.00,NW,305,3.0,6.0,95,0.00,,,0.00,0.000000,,2013-01-03 13:02:00,
2013-01-03 08:33:00,34.0,32.0,-100.00,NE,42,3.0,9.0,91,0.00,,,0.00,2.000000,,2013-01-03 13:33:00,
2013-01-03 08:43:00,34.0,32.0,-100.00,NE,42,3.0,9.0,91,0.00,,,0.00,2.000000,,2013-01-03 13:43:00,
2013-01-03 08:53:00,34.0,32.0,-100.00,NE,42,3.0,9.0,91,0.00,,,0.00,2.000000,,2013-01-03 13:53:00,
2013-01-03 09:03:00,34.0,32.0,-100.00,NE,42,3.0,9.0,91,0.00,,,0.00,2.000000,,2013-01-03 14:03:00,
2013-01-03 09:33:00,34.0,31.0,-100.00,NE,47,3.0,8.0,87,0.00,,,0.00,38.000000,,2013-01-03 14:33:00,
2013-01-03 09:43:00,34.0,31.0,-100.00,NE,47,3.0,8.0,87,0.00,,,0.00,38.000000,,2013-01-03 14:43:00,
2013-01-03 09:53:00,34.0,31.0,-100.00,NE,47,3.0,8.0,87,0.00,,,0.00,38.000000,,2013-01-03 14:53:00,
2013-01-03 10:03:00,34.0,31.0,-100.00,NE,47,3.0,8.0,87,0.00,,,0.00,38.000000,,2013-01-03 15:03:00,
2013-01-03 10:34:00,36.0,31.0,-100.00,WNW,301,4.0,9.0,81,0.00,,,0.00,126.000000,,2013-01-03 15:34:00,
2013-01-03 10:43:00,36.0,31.0,-100.00,WNW,301,4.0,9.0,81,0.00,,,0.00,126.000000,,2013-01-03 15:43:00,
2013-01-03 10:53:00,36.0,31.0,-100.00,WNW,301,4.0,9.0,81,0.00,,,0.00,126.000000,,2013-01-03 15:53:00,
2013-01-03 11:03:00,36.0,31.0,-100.00,WNW,301,4.0,9.0,81,0.00,,,0.00,126.000000,,2013-01-03 16:03:00,
2013-01-03 11:34:00,38.0,31.0,-100.00,NNW,337,3.0,8.0,76,0.00,,,0.00,237.000000,,2013-01-03 16:34:00,
2013-01-03 11:43:00,38.0,31.0,-100.00,NNW,337,3.0,8.0,76,0.00,,,0.00,237.000000,,2013-01-03 16:43:00,
2013-01-03 11:53:00,38.0,31.0,-100.00,NNW,337,3.0,8.0,76,0.00,,,0.00,237.000000,,2013-01-03 16:53:00,
2013-01-03 12:03:00,38.0,31.0,-100.00,NNW,337,3.0,8.0,76,0.00,,,0.00,237.000000,,2013-01-03 17:03:00,
2013-01-03 12:33:00,38.0,30.0,-100.00,WNW,299,4.0,11.0,74,0.00,,,0.00,342.000000,,2013-01-03 17:33:00,
2013-01-03 12:43:00,38.0,30.0,-100.00,WNW,299,4.0,11.0,74,0.00,,,0.00,342.000000,,2013-01-03 17:43:00,
2013-01-03 12:53:00,38.0,30.0,-100.00,WNW,299,4.0,11.0,74,0.00,,,0.00,342.000000,,2013-01-03 17:53:00,
2013-01-03 13:03:00,38.0,30.0,-100.00,WNW,299,4.0,11.0,74,0.00,,,0.00,342.000000,,2013-01-03 18:03:00,
2013-01-03 13:33:00,40.0,30.0,-100.00,NW,325,5.0,12.0,68,0.00,,,0.00,449.000000,,2013-01-03 18:33:00,
2013-01-03 13:43:00,40.0,30.0,-100.00,NW,325,5.0,12.0,68,0.00,,,0.00,449.000000,,2013-01-03 18:43:00,
2013-01-03 13:53:00,40.0,30.0,-100.00,NW,325,5.0,12.0,68,0.00,,,0.00,449.000000,,2013-01-03 18:53:00,
2013-01-03 14:03:00,40.0,30.0,-100.00,NW,325,5.0,12.0,68,0.00,,,0.00,449.000000,,2013-01-03 19:03:00,
2013-01-03 14:57:00,40.0,30.0,-100.00,North,349,3.0,11.0,66,0.00,,,0.00,436.000000,,2013-01-03 19:57:00,
2013-01-03 15:03:00,40.0,30.0,-100.00,North,349,3.0,11.0,66,0.00,,,0.00,436.000000,,2013-01-03 20:03:00,
2013-01-03 15:33:00,38.0,29.0,-100.00,NW,320,6.0,11.0,69,0.00,,,0.00,317.000000,,2013-01-03 20:33:00,
2013-01-03 15:43:00,38.0,29.0,-100.00,NW,320,6.0,11.0,69,0.00,,,0.00,317.000000,,2013-01-03 20:43:00,
2013-01-03 15:53:00,38.0,29.0,-100.00,NW,320,6.0,11.0,69,0.00,,,0.00,317.000000,,2013-01-03 20:53:00,
2013-01-03 16:03:00,38.0,29.0,-100.00,NW,320,6.0,11.0,69,0.00,,,0.00,317.000000,,2013-01-03 21:03:00,
2013-01-03 16:38:00,42.0,30.0,-100.00,WNW,282,3.0,13.0,61,0.00,,,0.00,364.000000,,2013-01-03 21:38:00,
2013-01-03 16:50:00,42.0,30.0,-100.00,WNW,282,3.0,13.0,61,0.00,,,0.00,364.000000,,2013-01-03 21:50:00,
2013-01-03 17:03:00,42.0,30.0,-100.00,WNW,282,3.0,13.0,61,0.00,,,0.00,364.000000,,2013-01-03 22:03:00,
2013-01-03 17:33:00,37.0,27.0,-100.00,NNW,332,5.0,13.0,67,0.00,,,0.00,162.000000,,2013-01-03 22:33:00,
2013-01-03 17:43:00,37.0,27.0,-100.00,NNW,332,5.0,13.0,67,0.00,,,0.00,162.000000,,2013-01-03 22:43:00,
2013-01-03 17:53:00,37.0,27.0,-100.00,NNW,332,5.0,13.0,67,0.00,,,0.00,162.000000,,2013-01-03 22:53:00,
2013-01-03 18:03:00,37.0,27.0,-100.00,NNW,332,5.0,13.0,67,0.00,,,0.00,162.000000,,2013-01-03 23:03:00,
2013-01-03 18:33:00,34.0,26.0,-100.00,NW,308,3.0,10.0,73,0.00,,,0.00,12.000000,,2013-01-03 23:33:00,
2013-01-03 18:43:00,34.0,26.0,-100.00,NW,308,3.0,10.0,73,0.00,,,0.00,12.000000,,2013-01-03 23:43:00,
2013-01-03 18:53:00,34.0,26.0,-100.00,NW,308,3.0,10.0,73,0.00,,,0.00,12.000000,,2013-01-03 23:53:00,
2013-01-03 19:03:00,34.0,26.0,-100.00,NW,308,3.0,10.0,73,0.00,,,0.00,12.000000,,2013-01-04 00:03:00,
2013-01-03 19:33:00,32.0,27.0,-100.00,NNE,24,1.0,5.0,83,0.00,,,0.00,0.000000,,2013-01-04 00:33:00,
2013-01-03 19:42:00,32.0,27.0,-100.00,NNE,24,1.0,5.0,83,0.00,,,0.00,0.000000,,2013-01-04 00:42:00,
2013-01-03 19:53:00,32.0,27.0,-100.00,NNE,24,1.0,5.0,83,0.00,,,0.00,0.000000,,2013-01-04 00:53:00,
2013-01-03 20:02:00,32.0,27.0,-100.00,NNE,24,1.0,5.0,83,0.00,,,0.00,0.000000,,2013-01-04 01:02:00,
2013-01-03 20:33:00,29.0,26.0,-100.00,East,90,1.0,4.0,88,0.00,,,0.00,0.000000,,2013-01-04 01:33:00,
2013-01-03 20:42:00,29.0,26.0,-100.00,East,90,1.0,4.0,88,0.00,,,0.00,0.000000,,2013-01-04 01:42:00,
2013-01-03 20:53:00,29.0,26.0,-100.00,East,90,1.0,4.0,88,0.00,,,0.00,0.000000,,2013-01-04 01:53:00,
2013-01-03 21:02:00,29.0,26.0,-100.00,East,90,1.0,4.0,88,0.00,,,0.00,0.000000,,2013-01-04 02:02:00,
2013-01-03 21:33:00,27.0,26.0,-100.00,East,99,2.0,4.0,95,0.00,,,0.00,0.000000,,2013-01-04 02:33:00,
2013-01-03 21:42:00,27.0,26.0,-100.00,East,99,2.0,4.0,95,0.00,,,0.00,0.000000,,2013-01-04 02:42:00,
2013-01-03 21:53:00,27.0,26.0,-100.00,East,99,2.0,4.0,95,0.00,,,0.00,0.000000,,2013-01-04 02:53:00,
2013-01-03 22:03:00,27.0,26.0,-100.00,East,99,2.0,4.0,95,0.00,,,0.00,0.000000,,2013-01-04 03:03:00,
2013-01-03 22:33:00,27.0,26.0,-100.00,East,92,2.0,5.0,96,0.00,,,0.00,0.000000,,2013-01-04 03:33:00,
2013-01-03 22:43:00,27.0,26.0,-100.00,East,92,2.0,5.0,96,0.00,,,0.00,0.000000,,2013-01-04 03:43:00,
2013-01-03 22:53:00,27.0,26.0,-100.00,East,92,2.0,5.0,96,0.00,,,0.00,0.000000,,2013-01-04 03:53:00,
2013-01-03 23:02:00,27.0,26.0,-100.00,East,92,2.0,5.0,96,0.00,,,0.00,0.000000,,2013-01-04 04:02:00,
2013-01-03 23:32:00,26.0,25.0,-100.00,East,91,1.0,3.0,97,0.00,,,0.00,0.000000,,2013-01-04 04:32:00,
2013-01-03 23:42:00,26.0,25.0,-100.00,East,91,1.0,3.0,97,0.00,,,0.00,0.000000,,2013-01-04 04:42:00,
2013-01-03 23:53:00,26.0,25.0,-100.00,East,91,1.0,3.0,97,0.00,,,0.00,0.000000,,2013-01-04 04:53:00,